This is the latest recevied weather packets stored in our database for station/object NO3U. If no packets are shown the sender has not sent any weather packets the latest 1 day(s).
| Time | Temp. | Humidity | Pressure | Rain* | Wind** | Luminosity | Snow |
|---|---|---|---|---|---|---|---|
| 1777974415 | 17.78° C | 71% | 1007.6 hPa | 0 mm | 1.34 m/s, 134° | 0 W/m² | - |
| 1777974111 | 17.22° C | 72% | 1007.4 hPa | 0 mm | 0 m/s | 0 W/m² | - |
| 1777973808 | 17.78° C | 72% | 1007.4 hPa | 0 mm | 0.45 m/s, 62° | 0 W/m² | - |
| 1777973505 | 17.78° C | 71% | 1007.3 hPa | 0 mm | 1.34 m/s, 100° | 0 W/m² | - |
| 1777973202 | 17.78° C | 71% | 1007.2 hPa | 0 mm | 0 m/s | 0 W/m² | - |
| 1777972901 | 17.78° C | 71% | 1007.1 hPa | 0 mm | 1.34 m/s, 115° | 0 W/m² | - |
| 1777972598 | 17.78° C | 71% | 1007.1 hPa | 0 mm | 2.24 m/s, 136° | 0 W/m² | - |
| 1777972296 | 17.78° C | 70% | 1007 hPa | 0 mm | 0.89 m/s, 277° | 0 W/m² | - |
| 1777971993 | 17.22° C | 72% | 1007.1 hPa | 0 mm | 0.45 m/s, 63° | 0 W/m² | - |
| 1777971691 | 17.22° C | 72% | 1007.1 hPa | 0 mm | 0.89 m/s, 87° | 0 W/m² | - |
| 1777971388 | 17.22° C | 73% | 1007.3 hPa | 0 mm | 1.34 m/s, 85° | 0 W/m² | - |
| 1777971086 | 17.22° C | 73% | 1007.2 hPa | 0 mm | 1.34 m/s, 81° | 0 W/m² | - |
| 1777970784 | 16.67° C | 74% | 1007.2 hPa | 0 mm | 0.89 m/s, 89° | 0 W/m² | - |
| 1777970482 | 16.67° C | 75% | 1007.2 hPa | 0 mm | 0.45 m/s, 68° | 0 W/m² | - |
| 1777970179 | 17.22° C | 73% | 1007.2 hPa | 0 mm | 0.89 m/s, 67° | 0 W/m² | - |
| 1777969875 | 16.67° C | 74% | 1007 hPa | 0 mm | 0 m/s | 0 W/m² | - |
| 1777969571 | 17.22° C | 72% | 1007.3 hPa | 0 mm | 2.24 m/s, 130° | 0 W/m² | - |
| 1777969269 | 17.22° C | 73% | 1007.2 hPa | 0 mm | 0 m/s | 0 W/m² | - |
| 1777968965 | 17.22° C | 72% | 1007.1 hPa | 0 mm | 1.34 m/s, 101° | 0 W/m² | - |
| 1777968662 | 17.22° C | 72% | 1007.1 hPa | 0 mm | 2.24 m/s, 122° | 0 W/m² | - |
| 1777968358 | 17.22° C | 71% | 1006.9 hPa | 0 mm | 1.79 m/s, 111° | 0 W/m² | - |
| 1777968055 | 17.22° C | 71% | 1007.1 hPa | 0 mm | 0.45 m/s, 83° | 0 W/m² | - |
| 1777967750 | 17.22° C | 71% | 1007 hPa | 0 mm | 0.45 m/s, 79° | 0 W/m² | - |
| 1777967448 | 17.22° C | 72% | 1007 hPa | 0 mm | 0.45 m/s, 347° | 0 W/m² | - |
| 1777967144 | 17.22° C | 71% | 1006.7 hPa | 0 mm | 0.89 m/s, 57° | 0 W/m² | - |
* Rain latest hour (hover to see other rain measurements)
** Current wind speed in m/s (hover to see current wind gust speed)